Medicine Hat, Alberta

12:21 AM MDT on June 27, 2017 (GMT -0600)
Medicine Hat

Weather History for CYXH - November, 2013

Change the Weather History Date:

Friday, November 22, 2013

  Actual Average Record
Temperature  
Mean Temperature 10 °F -  
Max Temperature 14 °F 30 °F 66 °F (2005)
Min Temperature 5 °F 9 °F -21 °F (2014)
Degree Days  
Heating Degree Days 55    
Moisture  
Dew Point 8 °F    
Average Humidity 85    
Maximum Humidity 100    
Minimum Humidity 79    
Precipitation  
Precipitation 0.00 in 0.02 in - ()
Sea Level Pressure  
Sea Level Pressure 30.68 in    
Wind  
Wind Speed 7 mph ()    
Max Wind Speed 13 mph    
Max Gust Speed -    
Visibility 12.4 miles    
Events      
Averages and records for this station are not official NWS values.
T = Trace of Precipitation, MM = Missing Value Source: Averaged Metar Reports

Daily Weather History Graph

Daily Weather History Graph

Search for Another Location

Airport or City:

Trip Planner

Search our weather history database for the weather conditions in past years. The results will help you decide how hot, cold, wet, or windy it might be!

Date:

Astronomy

Nov. 22, 2013 Rise Set
Actual Time 7:47 AM MST 4:30 PM MST
Civil Twilight 7:10 AM MST 5:06 PM MST
Nautical Twilight 6:30 AM MST 5:46 PM MST
Astronomical Twilight 5:52 AM MST 6:25 PM MST
Moon 9:14 PM MST (11/22) 11:25 AM MST (11/22)
Length of Visible Light 9h 56m
Length of Day
8h 43m
Waning Gibbous, 77% of the Moon is Illuminated
Nov 22
Waning Gibbous
Nov 25
Last Quarter
Dec 2
New
Dec 9
First Quarter
Dec 17
Full

Hourly Weather History & Observations

Time (MST) Temp. Windchill Dew Point Humidity Pressure Visibility Wind Dir Wind Speed Gust Speed Precip Events Conditions
12:00 AM 12.2 °F 1.7 °F 6.8 °F 79% 30.49 in 9.0 mi East 6.9 mph - N/A   Overcast
1:00 AM 12.2 °F 2.9 °F 8.6 °F 85% 30.49 in 9.0 mi ENE 5.8 mph - N/A   Overcast
2:00 AM 12.2 °F 4.3 °F 6.8 °F 79% 30.50 in 9.0 mi ENE 4.6 mph - N/A   Mostly Cloudy
3:00 AM 12.2 °F 0.7 °F 6.8 °F 79% 30.53 in 9.0 mi ENE 8.1 mph - N/A   Overcast
4:00 AM 10.4 °F -3.3 °F 6.8 °F 85% 30.55 in 9.0 mi NE 10.4 mph - N/A   Overcast
5:00 AM 10.4 °F -3.3 °F 6.8 °F 85% 30.59 in 9.0 mi ENE 10.4 mph - N/A   Overcast
6:00 AM 10.4 °F -4.8 °F 6.8 °F 85% 30.63 in 15.0 mi ENE 12.7 mph - N/A   Mostly Cloudy
7:00 AM 8.6 °F -6.3 °F 6.8 °F 92% 30.66 in 15.0 mi ENE 11.5 mph - N/A   Mostly Cloudy
8:00 AM 8.6 °F -6.3 °F 5.0 °F 85% 30.71 in 30.0 mi NE 11.5 mph - N/A   Mostly Cloudy
9:00 AM 8.6 °F -6.3 °F 5.0 °F 85% 30.75 in 30.0 mi ENE 11.5 mph - N/A   Mostly Cloudy
10:00 AM 10.4 °F -4.1 °F 5.0 °F 79% 30.76 in 30.0 mi ENE 11.5 mph - N/A   Mostly Cloudy
11:00 AM 10.4 °F -2.4 °F 6.8 °F 85% 30.78 in 15.0 mi NE 9.2 mph - N/A   Overcast
12:00 PM 12.2 °F 0.7 °F 6.8 °F 79% 30.77 in 15.0 mi ENE 8.1 mph - N/A   Overcast
1:00 PM 12.2 °F 1.7 °F 8.6 °F 85% 30.76 in 15.0 mi East 6.9 mph - N/A   Overcast
2:00 PM 14.0 °F 2.9 °F 8.6 °F 79% 30.76 in 15.0 mi NE 8.1 mph - N/A   Overcast
3:00 PM 14.0 °F 3.9 °F 10.4 °F 86% 30.76 in 15.0 mi NE 6.9 mph - N/A   Overcast
4:00 PM 14.0 °F 6.5 °F 10.4 °F 86% 30.75 in 15.0 mi East 4.6 mph - N/A   Mostly Cloudy
5:00 PM 14.0 °F 6.5 °F 10.4 °F 86% 30.74 in 15.0 mi ENE 4.6 mph - N/A   Mostly Cloudy
6:00 PM 14.0 °F 8.2 °F 10.4 °F 86% 30.74 in 15.0 mi NE 3.5 mph - N/A   Mostly Cloudy
7:00 PM 14.0 °F 6.5 °F 10.4 °F 86% 30.76 in 15.0 mi NE 4.6 mph - N/A   Mostly Cloudy
8:00 PM 14.0 °F 8.2 °F 10.4 °F 86% 30.74 in 15.0 mi SE 3.5 mph - N/A   Overcast
9:00 PM 12.2 °F 4.3 °F 10.4 °F 92% 30.72 in 9.0 mi SSW 4.6 mph - N/A   Mostly Cloudy
10:00 PM 6.8 °F -3.5 °F 5.0 °F 92% 30.69 in 9.0 mi SSW 5.8 mph - N/A   Clear
11:00 PM 5.0 °F - 5.0 °F 100% 30.69 in 9.0 mi Calm Calm - N/A   Clear